STARLINK-37995, 69977

Orbit data source: Space-Track

STARLINK-37995, 69977 is a payload satellite owned by SpaceX/Seattle (US) in SSO that was launched on Sat, 11 Jul 2026 UTC via an FALCON 9 launch vehicle from the Air Force Western Test Range (AFWTR). Payload-class satellites include a variety of spacecraft equipped with specific instruments for various scientific and technological missions. These include communications satellites like Starlink; space stations such as the ISS; scientific satellites like the Hubble; Earth observation satellites from companies like Planet Labs, Umbra, and HawkEye 360; GPS; miniature CubeSats for education and research; and military/defense satellites.

Loading next visibility...
Identifier
69977, 2026-159C
Orbit
SSO
Country
Flag of USUS
Related business
Manufacturer
SpaceX/Seattle
Mission
Operational spacecraft
Bus & Motor
STARLINK V2MO, Unknown motor
Mass
575 kg wet, ~530 kg dry
Launch date (UTC)
2026-07-11 (1 month ago)
Launch vehicle
FALCON 9
Launch site
Air Force Western Test Range (AFWTR)
Object type
Payload
Rocket body
Debris
Shape & HBR
BOX + PAN, 17.7 m
Radar Cross Section
Large (>1 m²)

Expand to show TLE details & history
Last TLE update: 22 hours ago

TLE from 22 hours ago
0 STARLINK-37995
1 69977U 26159C   26228.12537172  .00119461  00000-0  78974-3 0  9999
2 69977  97.2823  68.4296 0002246  86.7970 273.3552 15.75214572  6896
Epoch: 2026-08-16T03:00Z
TLE epoch observation values (Epoch: 2026-08-16T03:00:32.116Z)
Latitude
-0.00005°
Longitude
58.76941°
Altitude
347.101 km
Speed
7.701 km/s
True Right ascension
04h 33m 43s
True Declination
0° 00' 00"
Sunlit
Object was in daylight at epoch
Visualization orbit readout
Latitude
Unknown
Longitude
Unknown
Altitude
Unknown
Speed
Unknown
Apparent Right ascension
Unknown
Apparent Declination
Unknown
Sunlit
N/A
Visualization observer readout
Local Sidereal Time
15:53:07
Azimuth
Unknown
Elevation
Unknown
Doppler factor
Unknown
Orbital elements
Apogee altitude
342.417 km
Perigee altitude
339.399 km
Semi-major axis
6,719.045 km
Eccentricity
0.00022
Inclination
97.2823°
RAAN
68.4296°
Arg. of periapsis
86.797°
True anomaly
273.32951°
Mean anomaly
273.3552°
Eccentric anomaly
273.34235°
Mean motion
3.94078 °/min
Orbital period
91.35 mins
BSTAR
0.00078974
Loading maneuver chart data...
Computing Atmospheric mass density...
Loading historical data...
Loading historical data...
Loading historical data...
Loading historical data...
Loading historical data...
Loading historical data...
Loading historical data...

Documentation

Showing up to 5 results
|